• In Hungary
  • List of Countries
  • For 7 days
  • Water Temperature
  • Satellite Maps
  • Weather Map
  • News
  • Weather Widgets
  • user-avatar
    Login

    Hourly Weather Krasnaya Samarka

    Today, 24 May, Thursday

    Time Temperature Precipitation Wind Pressure Humidity
    00:00 +19°C° 0 mm 2 mps 762 mmHg 53%
    01:00 +18°C° 0 mm 2 mps 762 mmHg 55%
    02:00 +18°C° 0 mm 2 mps 762 mmHg 57%
    03:00 +17°C° 0 mm 2 mps 761 mmHg 59%
    04:00 +18°C° 0 mm 2 mps 761 mmHg 59%
    05:00 +19°C° 0 mm 2 mps 761 mmHg 59%
    06:00 +21°C° 0 mm 1 mps 761 mmHg 59%
    07:00 +23°C° 0 mm 1 mps 761 mmHg 54%
    08:00 +25°C° 0 mm 1 mps 761 mmHg 49%
    09:00 +27°C° 0 mm 1 mps 760 mmHg 43%
    10:00 +28°C° 0 mm 1 mps 760 mmHg 41%
    11:00 +29°C° 0 mm 1 mps 760 mmHg 39%
    12:00 +30°C° 0 mm 1 mps 760 mmHg 37%
    13:00 +30°C° 0 mm 1 mps 759 mmHg 39%
    14:00 +29°C° 0 mm 2 mps 759 mmHg 41%
    15:00 +29°C° 0 mm 2 mps 759 mmHg 44%
    16:00 +28°C° 0 mm 2 mps 758 mmHg 49%
    17:00 +27°C° 0 mm 3 mps 758 mmHg 54%
    18:00 +26°C° 0 mm 3 mps 757 mmHg 59%
    19:00 +25°C° 0.2 mm 4 mps 757 mmHg 63%
    20:00 +22°C° 0.2 mm 4 mps 757 mmHg 67%
    21:00 +21°C° 0.2 mm 4 mps 756 mmHg 71%
    22:00 +20°C° 0.4 mm 4 mps 756 mmHg 73%
    23:00 +19°C° 0.4 mm 4 mps 756 mmHg 75%

    Tomorrow, 25 May, Friday

    Time Temperature Precipitation Wind Pressure Humidity
    00:00 +19°C° 0.4 mm 4 mps 756 mmHg 77%
    01:00 +18°C° 0.1 mm 4 mps 756 mmHg 78%
    02:00 +18°C° 0.1 mm 4 mps 755 mmHg 79%
    03:00 +18°C° 0.1 mm 4 mps 755 mmHg 80%
    04:00 +18°C° 0 mm 4 mps 755 mmHg 80%
    05:00 +18°C° 0 mm 4 mps 754 mmHg 80%
    06:00 +18°C° 0 mm 4 mps 754 mmHg 80%
    07:00 +19°C° 0.1 mm 4 mps 754 mmHg 78%
    08:00 +19°C° 0.1 mm 5 mps 754 mmHg 76%
    09:00 +20°C° 0.1 mm 5 mps 754 mmHg 74%
    10:00 +20°C° 0 mm 5 mps 754 mmHg 73%
    11:00 +20°C° 0 mm 4 mps 754 mmHg 72%
    12:00 +20°C° 0 mm 4 mps 754 mmHg 70%
    13:00 +20°C° 0.1 mm 5 mps 755 mmHg 72%
    14:00 +19°C° 0.1 mm 6 mps 755 mmHg 73%
    15:00 +17°C° 0.1 mm 6 mps 755 mmHg 74%
    16:00 +16°C° 0 mm 6 mps 756 mmHg 73%
    17:00 +15°C° 0 mm 6 mps 756 mmHg 72%
    18:00 +15°C° 0 mm 6 mps 756 mmHg 70%
    19:00 +13°C° 0.1 mm 6 mps 757 mmHg 68%
    20:00 +11°C° 0.1 mm 7 mps 758 mmHg 66%
    21:00 +10°C° 0.1 mm 7 mps 758 mmHg 63%
    22:00 +9°C° 0 mm 7 mps 759 mmHg 62%
    23:00 +9°C° 0 mm 7 mps 759 mmHg 61%

    Day after tomorrow, 26 May, Saturday

    Time Temperature Precipitation Wind Pressure Humidity
    00:00 +8°C° 0 mm 7 mps 759 mmHg 59%
    01:00 +6°C° 0 mm 7 mps 760 mmHg 59%
    02:00 +6°C° 0 mm 7 mps 760 mmHg 58%
    03:00 +5°C° 0 mm 6 mps 760 mmHg 58%
    04:00 +6°C° 0 mm 7 mps 761 mmHg 59%
    05:00 +6°C° 0 mm 7 mps 762 mmHg 60%
    06:00 +6°C° 0 mm 8 mps 762 mmHg 61%
    07:00 +7°C° 0 mm 8 mps 763 mmHg 56%
    08:00 +9°C° 0 mm 8 mps 763 mmHg 51%
    09:00 +10°C° 0 mm 9 mps 764 mmHg 46%
    10:00 +11°C° 0 mm 8 mps 764 mmHg 45%
    11:00 +11°C° 0 mm 8 mps 764 mmHg 44%
    12:00 +12°C° 0 mm 8 mps 765 mmHg 43%
    13:00 +12°C° 0 mm 8 mps 765 mmHg 43%
    14:00 +12°C° 0 mm 8 mps 765 mmHg 43%
    15:00 +13°C° 0 mm 8 mps 765 mmHg 44%
    16:00 +12°C° 0 mm 7 mps 765 mmHg 47%
    17:00 +13°C° 0 mm 6 mps 766 mmHg 50%
    18:00 +12°C° 0 mm 5 mps 766 mmHg 53%
    19:00 +11°C° 0 mm 4 mps 766 mmHg 57%
    20:00 +10°C° 0 mm 3 mps 767 mmHg 61%
    21:00 +8°C° 0 mm 2 mps 767 mmHg 65%
    22:00 +8°C° 0 mm 2 mps 767 mmHg 66%
    23:00 +7°C° 0 mm 2 mps 768 mmHg 67%

    27 May, Sunday

    Time Temperature Precipitation Wind Pressure Humidity
    00:00 +8°C° 0 mm 1 mps 768 mmHg 67%
    01:00 +8°C° 0 mm 1 mps 768 mmHg 67%
    02:00 +7°C° 0 mm 2 mps 768 mmHg 67%
    03:00 +6°C° 0 mm 2 mps 768 mmHg 67%
    04:00 +8°C° 0 mm 2 mps 768 mmHg 65%
    05:00 +9°C° 0 mm 3 mps 768 mmHg 62%
    06:00 +10°C° 0 mm 3 mps 768 mmHg 60%
    07:00 +12°C° 0 mm 4 mps 768 mmHg 56%
    08:00 +14°C° 0 mm 5 mps 768 mmHg 52%
    09:00 +16°C° 0 mm 6 mps 767 mmHg 48%
    10:00 +17°C° 0 mm 6 mps 767 mmHg 47%
    11:00 +19°C° 0 mm 6 mps 766 mmHg 47%
    12:00 +21°C° 0 mm 7 mps 766 mmHg 46%
    13:00 +21°C° 0 mm 7 mps 765 mmHg 46%
    14:00 +21°C° 0 mm 7 mps 765 mmHg 46%
    15:00 +21°C° 0 mm 7 mps 764 mmHg 46%
    16:00 +21°C° 0 mm 6 mps 764 mmHg 50%
    17:00 +20°C° 0 mm 6 mps 763 mmHg 54%
    18:00 +19°C° 0 mm 5 mps 763 mmHg 58%
    19:00 +17°C° 0 mm 5 mps 762 mmHg 60%
    20:00 +16°C° 0 mm 5 mps 762 mmHg 63%
    21:00 +14°C° 0 mm 5 mps 762 mmHg 65%
    22:00 +14°C° 0 mm 5 mps 761 mmHg 65%
    23:00 +14°C° 0 mm 6 mps 761 mmHg 65%

    28 May, Monday

    Time Temperature Precipitation Wind Pressure Humidity
    00:00 +14°C° 0 mm 6 mps 760 mmHg 66%
    01:00 +13°C° 0 mm 6 mps 760 mmHg 67%
    02:00 +13°C° 0 mm 6 mps 760 mmHg 68%
    03:00 +11°C° 0 mm 6 mps 759 mmHg 70%
    04:00 +11°C° 0.1 mm 6 mps 759 mmHg 73%
    05:00 +12°C° 0.1 mm 5 mps 759 mmHg 77%
    06:00 +12°C° 0.1 mm 5 mps 759 mmHg 81%
    07:00 +13°C° 0.2 mm 5 mps 759 mmHg 74%
    08:00 +14°C° 0.2 mm 5 mps 760 mmHg 67%
    09:00 +14°C° 0.2 mm 5 mps 760 mmHg 60%
    10:00 +15°C° 0 mm 5 mps 760 mmHg 54%
    11:00 +16°C° 0 mm 6 mps 760 mmHg 48%
    12:00 +16°C° 0 mm 6 mps 760 mmHg 42%
    13:00 +16°C° 0 mm 6 mps 760 mmHg 43%
    14:00 +16°C° 0 mm 6 mps 760 mmHg 43%
    15:00 +15°C° 0 mm 6 mps 760 mmHg 44%
    16:00 +15°C° 0 mm 6 mps 760 mmHg 47%
    17:00 +14°C° 0 mm 6 mps 760 mmHg 50%
    18:00 +13°C° 0 mm 6 mps 760 mmHg 53%
    19:00 +10°C° 0 mm 5 mps 760 mmHg 57%
    20:00 +9°C° 0 mm 5 mps 761 mmHg 60%
    21:00 +7°C° 0 mm 4 mps 761 mmHg 63%
    22:00 +7°C° 0 mm 4 mps 762 mmHg 63%
    23:00 +6°C° 0 mm 4 mps 762 mmHg 64%

    29 May, Tuesday

    Time Temperature Precipitation Wind Pressure Humidity
    00:00 +5°C° 0 mm 4 mps 762 mmHg 64%
    01:00 +5°C° 0 mm 4 mps 763 mmHg 65%
    02:00 +4°C° 0 mm 4 mps 763 mmHg 67%
    03:00 +4°C° 0 mm 4 mps 763 mmHg 68%
    04:00 +5°C° 0 mm 4 mps 763 mmHg 64%
    05:00 +6°C° 0 mm 4 mps 764 mmHg 61%
    06:00 +7°C° 0 mm 5 mps 764 mmHg 58%
    07:00 +8°C° 0 mm 5 mps 764 mmHg 53%
    08:00 +10°C° 0 mm 5 mps 764 mmHg 48%
    09:00 +11°C° 0 mm 6 mps 763 mmHg 43%
    10:00 +13°C° 0 mm 6 mps 763 mmHg 44%
    11:00 +14°C° 0 mm 6 mps 762 mmHg 45%
    12:00 +15°C° 0 mm 6 mps 762 mmHg 46%
    13:00 +14°C° 0 mm 6 mps 762 mmHg 50%
    14:00 +14°C° 0 mm 6 mps 761 mmHg 54%
    15:00 +14°C° 0 mm 6 mps 761 mmHg 58%
    16:00 +14°C° 0 mm 5 mps 761 mmHg 60%
    17:00 +14°C° 0 mm 4 mps 761 mmHg 62%
    18:00 +14°C° 0 mm 3 mps 760 mmHg 64%
    19:00 +13°C° 0 mm 3 mps 760 mmHg 69%
    20:00 +12°C° 0 mm 3 mps 760 mmHg 74%
    21:00 +12°C° 0 mm 2 mps 760 mmHg 79%
    22:00 +10°C° 0 mm 3 mps 760 mmHg 81%
    23:00 +10°C° 0 mm 3 mps 760 mmHg 82%
    Show more